Akron, CO

6:18 PM MDT on April 27, 2017 (GMT -0600)
Akron-Washington County

Weather History for KAKO - July, 2014

Change the Weather History Date:

Wednesday, July 2, 2014

  Actual Average Record
Temperature  
Mean Temperature 66 °F 73 °F  
Max Temperature 77 °F 87 °F 101 °F (1990)
Min Temperature 54 °F 58 °F 45 °F (1992)
Degree Days  
Heating Degree Days 0    
Month to date heating degree days 0  
Cooling Degree Days 1    
Month to date cooling degree days 2  
Growing Degree Days 15 (Base 50)    
Moisture  
Dew Point 50 °F    
Average Humidity 60    
Maximum Humidity 78    
Minimum Humidity 41    
Precipitation  
Precipitation 0.00 in 0.06 in 0.91 in (1988)
Month to date precipitation 0.00 0.13  
Year to date precipitation 8.52 8.77  
Sea Level Pressure  
Sea Level Pressure 30.13 in    
Wind  
Wind Speed 9 mph (SE)    
Max Wind Speed 22 mph    
Max Gust Speed 27 mph    
Visibility 10 miles    
Events      
T = Trace of Precipitation, MM = Missing Value Source: NWS Daily Summary

Daily Weather History Graph

Daily Weather History Graph

Search for Another Location

Airport or City:

Trip Planner

Search our weather history database for the weather conditions in past years. The results will help you decide how hot, cold, wet, or windy it might be!

Date:

Astronomy

Jul. 02, 2014 Rise Set
Actual Time 5:27 AM MDT 8:26 PM MDT
Civil Twilight 4:54 AM MDT 8:58 PM MDT
Nautical Twilight 4:13 AM MDT 9:40 PM MDT
Astronomical Twilight 3:25 AM MDT 10:28 PM MDT
Moon 10:33 AM MDT (7/2) 11:19 PM MDT (7/2)
Length of Visible Light 16h 03m
Length of Day
14h 58m
Waxing Crescent, 25% of the Moon is Illuminated
Jul 2
Waxing Crescent
Jul 5
First Quarter
Jul 12
Full
Jul 18
Last Quarter
Jul 26
New

Hourly Weather History & Observations

Time (MDT) Temp. Dew Point Humidity Pressure Visibility Wind Dir Wind Speed Gust Speed Precip Events Conditions
12:53 AM 57.9 °F 48.9 °F 72% 30.15 in 10.0 mi ESE 5.8 mph - N/A   Mostly Cloudy
1:53 AM 57.9 °F 48.0 °F 70% 30.15 in 10.0 mi ESE 6.9 mph - N/A   Overcast
2:53 AM 57.9 °F 48.0 °F 70% 30.16 in 10.0 mi ESE 4.6 mph - N/A   Overcast
3:53 AM 57.0 °F 48.0 °F 72% 30.17 in 10.0 mi ESE 5.8 mph - N/A   Overcast
4:53 AM 57.0 °F 48.9 °F 74% 30.17 in 10.0 mi SE 6.9 mph - N/A   Overcast
5:53 AM 55.0 °F 48.0 °F 77% 30.18 in 10.0 mi East 3.5 mph - N/A   Overcast
6:53 AM 55.9 °F 48.0 °F 75% 30.20 in 10.0 mi East 3.5 mph - N/A   Mostly Cloudy
7:53 AM 60.1 °F 48.0 °F 64% 30.20 in 10.0 mi SE 6.9 mph - N/A   Overcast
8:53 AM 63.0 °F 48.0 °F 58% 30.20 in 10.0 mi South 11.5 mph - N/A   Clear
9:53 AM 64.9 °F 46.9 °F 52% 30.18 in 10.0 mi SE 8.1 mph - N/A   Overcast
10:53 AM 69.1 °F 48.0 °F 47% 30.17 in 10.0 mi SE 10.4 mph - N/A   Partly Cloudy
11:53 AM 70.0 °F 48.9 °F 47% 30.16 in 10.0 mi South 13.8 mph 25.3 mph N/A   Partly Cloudy
12:53 PM 72.0 °F 50.0 °F 46% 30.14 in 10.0 mi South 18.4 mph 26.5 mph N/A   Clear
1:53 PM 73.9 °F 52.0 °F 46% 30.12 in 10.0 mi South 13.8 mph 26.5 mph N/A   Mostly Cloudy
3:53 PM 75.9 °F 51.1 °F 42% 30.09 in 10.0 mi SE 10.4 mph 19.6 mph N/A   Mostly Cloudy
4:53 PM 75.0 °F 51.1 °F 43% 30.06 in 10.0 mi SE 15.0 mph 24.2 mph N/A   Partly Cloudy
5:53 PM 75.0 °F 50.0 °F 41% 30.06 in 10.0 mi SSE 13.8 mph 24.2 mph N/A   Partly Cloudy
6:53 PM 73.0 °F 51.1 °F 46% 30.05 in 10.0 mi SE 17.3 mph - N/A   Clear
7:53 PM 71.1 °F 51.1 °F 49% 30.06 in 10.0 mi SE 13.8 mph - N/A   Clear
8:53 PM 66.0 °F 52.0 °F 60% 30.07 in 10.0 mi SE 11.5 mph - N/A   Clear
9:53 PM 62.1 °F 52.0 °F 70% 30.11 in 10.0 mi SE 10.4 mph - N/A   Clear
10:53 PM 62.1 °F 53.1 °F 72% 30.10 in 10.0 mi SE 10.4 mph - N/A   Clear
11:53 PM 60.1 °F 53.1 °F 78% 30.10 in 10.0 mi SSE 10.4 mph - N/A   Clear